Location: Eastlake (historical)
(39.0077°N, 122.6678°W)
Time: 13:11:28
(UTC+00:00)

BREEZE-M DEB (TANK) - Pass Details

Date: 25 November 2020
Orbit: 357 x 16370 km, 49.4° (Epoch: 25 January)

Event Time Altitude Azimuth Distance (km) Brightness Sun altitude
Exits shadow 14:15:42 - 247° (WSW) 1,921 4.7 -9.7°
Reaches altitude 10° 14:16:10 10° 248° (WSW) 1,704 4.4 -9.6°
Maximum altitude 14:19:25 70° 333° (NNW) 856 3.1 -9.0°
Drops below altitude 10° 14:29:33 10° 57° (ENE) 5,071 7.7 -7.2°
Sets 14:37:17 0° 60° (ENE) 8,147 8.8 -5.8°
